Regional Weather Roundup
Issued by NWS State College, PA

Home | Current Version | Previous Version | Graphics & Text | Print | Product List | Glossary Off
Versions: 1 2 3 4 5 6 7 8 9 10 11 12 13 14 15 16 17 18 19 20 21 22 23 24 25 26 27 28 29 30 31 32 33 34 35 36 37 38 39 40 41 42 43 44 45 46 47 48 49 50

000
ASUS41 KCTP 292003
RWRCTP

REGIONAL WEATHER ROUNDUP
NATIONAL WEATHER SERVICE STATE COLLEGE PA
400 PM EDT FRI MAY 29 2015

Note: "fair" indicates few or no clouds below 12,000 feet with no
significant weather and/or obstructions to visibility.

* = STATION THAT DOES NOT REPORT PRECIPITATION /E.G. RAIN...SNOW...ETC/
    THUNDER OR FOG.

PAZ002>004-007>009-013>016-020>023-029>032-292100-
WESTERN PENNSYLVANIA

CITY           SKY/WX    TMP DP  RH WIND       PRES   REMARKS
ERIE           CLOUDY    84  62  47 S10       30.12F
MEADVILLE      CLOUDY    80  61  52 S6        30.15F
FRANKLIN*      PTSUNNY   82  63  51 S10       30.18F
NEW CASTLE     MOCLDY    85  66  52 CALM      30.14F
BEAVER COUNTY  MOSUNNY   86  64  48 S7        30.15F
BUTLER*        PTSUNNY   84  63  48 S6        30.17F
PITTSBURGH INT PTSUNNY   86  62  44 SW10      30.15F
PITTSBURGH     CLOUDY    83  58  42 S7        30.15F
INDIANA*       PTSUNNY   82  64  54 S6G14     30.22F
LATROBE        PTSUNNY   84  63  48 S9        30.18
WASHINGTON CO* PTSUNNY   82  64  54 SW8       30.18F
$$

PAZ004>006-010>012-017>019-024>028-033>037-041-042-045-046-049>053-292100-
CENTRAL PENNSYLVANIA

CITY           SKY/WX    TMP DP  RH WIND       PRES   REMARKS
BRADFORD       PTSUNNY   80  57  45 S10       30.22F
DUBOIS         PTSUNNY   82  58  43 SW14      30.20F
CLEARFIELD     PTSUNNY   82  59  45 S8        30.21F
JOHNSTOWN      PTSUNNY   78  61  55 S13       30.24F
ALTOONA        MOSUNNY   83  60  45 S14       30.23F
STATE COLLEGE  MOSUNNY   82  61  47 S12       30.22F
WILLIAMSPORT   MOSUNNY   83  57  41 W6        30.19F
SELINSGROVE    MOSUNNY   86  60  41 S8        30.21F
FT INDIANTOWN  SUNNY     83  63  50 S7        30.22F
CAPITAL CITY   SUNNY     84  64  50 E9        30.21F
HARRISBURG     PTSUNNY   85  64  49 SE3       30.20F
YORK           MOSUNNY   83  67  58 SE6       30.21F
$$

PAZ038>040-043-044-047-048-054-055-060>062-067>071-292100-
EASTERN PENNSYLVANIA

CITY           SKY/WX    TMP DP  RH WIND       PRES   REMARKS
SCRANTON       PTSUNNY   85  52  32 MISG      30.22F
MOUNT POCONO   MOSUNNY   78  51  38 SW8       30.34S
ALLENTOWN      SUNNY     86  55  34 S9        30.22F
QUAKERTOWN*    CLEAR     86  57  37 W6        30.24F
READING        MOSUNNY   87  59  38 SE6       30.21F
LANCASTER      SUNNY     84  61  45 VRB6      30.22F
COATESVILLE    CLEAR     82  64  54 S5        30.25F
POTTSTOWN      SUNNY     85  60  42 S8        30.23F
BLUE BELL      SUNNY     88  61  40 S6        30.22F
DOYLESTOWN     MOSUNNY   83  57  41 VRB3      30.22F
WILLOW GROVE   NOT AVBL
NORTH PHILA    SUNNY     88  56  33 VRB6      30.23F
PHILADELPHIA   MOSUNNY   86  61  42 VRB3      30.22F
$$



USA.gov is the U.S. government's official web portal to all federal, state and local government web resources and services.